Location: Chinatown
(37.7966°N, 122.4086°W)
Time: 05:45:54
(UTC+00:00)

ARIANE 6 FM1 Upper Stage - Visible Passes

Search period start: 11 October 2024 00:00
Search period end: 21 October 2024 00:00
Orbit: 563 x 594 km, 62.0° (Epoch: 10 October)

Date Brightness Start Highest point End Pass type
(mag) Time Alt. Az. Time Alt. Az. Time Alt. Az.
16 Oct 5.7 04:14:33 10° NNW 04:14:35 10° NNW 04:14:35 10° NNW visible
17 Oct 5.7 04:18:28 10° NNW 04:18:45 12° NNW 04:18:45 12° NNW visible
18 Oct 4.9 02:44:58 10° N 02:46:39 13° NE 02:46:39 13° NE visible
18 Oct 5.6 04:22:28 10° NW 04:22:56 13° NW 04:22:56 13° NW visible
19 Oct 4.4 02:48:11 10° N 02:50:53 18° NE 02:50:53 18° NE visible
19 Oct 5.7 04:26:36 10° NW 04:27:10 13° NW 04:27:10 13° NW visible
20 Oct 3.9 02:51:44 10° NNW 02:55:11 27° NE 02:55:11 27° NE visible
20 Oct 5.8 04:30:52 10° NW 04:31:29 13° WNW 04:31:29 13° WNW visible
